SAS43D ENGM-ENBR

Flight info

Callsign SAS43D
Flight time 0h 39m
Altitude 28000
Route ATLAP DCT AGEKU DCT PESUR
Aircraft A320/M-SDE3FGHIRWY/LB1

Departure

Time 2026-05-05 18:11
Airport Oslo-Gardermoen International Airport (ENGM)

Arrival

Time 2026-05-05 18:50
Airport Bergen Airport, Flesland (ENBR)
Time Latitude Longitude Altitude Speed Heading
2026-05-05 17:45 60.19561 11.09425 681 ft 0 kts 196°
2026-05-05 17:45 60.19559 11.09424 682 ft 0 kts 196°
2026-05-05 18:01 60.19578 11.09435 681 ft 4 kts 196°
2026-05-05 18:01 60.19602 11.09449 679 ft 2 kts 196°
2026-05-05 18:01 60.19603 11.09449 679 ft 0 kts 196°
2026-05-05 18:02 60.19604 11.09449 679 ft 2 kts 196°
2026-05-05 18:02 60.19619 11.09458 680 ft 2 kts 201°
2026-05-05 18:02 60.19635 11.09468 679 ft 2 kts 201°
2026-05-05 18:03 60.19650 11.09480 678 ft 2 kts 205°
2026-05-05 18:03 60.19664 11.09497 679 ft 2 kts 255°
2026-05-05 18:03 60.19664 11.09518 681 ft 0 kts 279°
2026-05-05 18:05 60.19665 11.09512 680 ft 1 kts 285°
2026-05-05 18:05 60.19672 11.09465 682 ft 6 kts 287°
2026-05-05 18:05 60.19690 11.09338 683 ft 12 kts 286°
2026-05-05 18:05 60.19716 11.09156 683 ft 15 kts 286°
2026-05-05 18:06 60.19735 11.09000 683 ft 9 kts 293°
2026-05-05 18:06 60.19744 11.08954 679 ft 12 kts 291°
2026-05-05 18:06 60.19732 11.08647 679 ft 16 kts 197°
2026-05-05 18:06 60.19612 11.08578 678 ft 19 kts 196°
2026-05-05 18:07 60.19465 11.08494 676 ft 25 kts 196°
2026-05-05 18:07 60.19290 11.08392 675 ft 28 kts 196°
2026-05-05 18:07 60.19096 11.08281 671 ft 30 kts 195°
2026-05-05 18:07 60.18899 11.08168 672 ft 29 kts 196°
2026-05-05 18:08 60.18698 11.08051 671 ft 31 kts 196°
2026-05-05 18:08 60.18485 11.07928 669 ft 33 kts 195°
2026-05-05 18:08 60.18348 11.07812 667 ft 10 kts 255°
2026-05-05 18:08 60.18392 11.07640 664 ft 18 kts 324°
2026-05-05 18:09 60.18499 11.07483 665 ft 20 kts 323°
2026-05-05 18:09 60.18582 11.07423 666 ft 1 kts 14°
2026-05-05 18:10 60.18606 11.07436 666 ft 18 kts 15°
2026-05-05 18:10 60.18971 11.07645 669 ft 87 kts 16°
2026-05-05 18:10 60.19737 11.08085 674 ft 140 kts 16°
2026-05-05 18:10 60.20784 11.08697 879 ft 163 kts 14°
2026-05-05 18:11 60.21868 11.09332 1507 ft 163 kts 12°
2026-05-05 18:11 60.22974 11.09969 2073 ft 172 kts 11°
2026-05-05 18:11 60.24197 11.10656 2398 ft 193 kts 11°
2026-05-05 18:11 60.25569 11.11353 2704 ft 214 kts
2026-05-05 18:12 60.27108 11.11100 3150 ft 233 kts 348°
2026-05-05 18:12 60.28765 11.10572 3804 ft 247 kts 346°
2026-05-05 18:12 60.30271 11.08975 4665 ft 249 kts 311°
2026-05-05 18:12 60.30997 11.05849 5563 ft 253 kts 277°
2026-05-05 18:13 60.30718 11.02330 6459 ft 259 kts 254°
2026-05-05 18:13 60.30360 10.98755 6833 ft 260 kts 272°
2026-05-05 18:13 60.30543 10.96389 6968 ft 258 kts 284°
2026-05-05 18:13 60.31115 10.91744 7011 ft 258 kts 284°
2026-05-05 18:14 60.31534 10.88221 7012 ft 258 kts 284°
2026-05-05 18:14 60.31793 10.84644 7009 ft 259 kts 269°
2026-05-05 18:14 60.31445 10.81079 7011 ft 261 kts 250°
2026-05-05 18:14 60.30474 10.77952 7262 ft 270 kts 229°
2026-05-05 18:15 60.29226 10.75162 8220 ft 267 kts 240°
2026-05-05 18:15 60.28724 10.71630 9086 ft 265 kts 271°
2026-05-05 18:15 60.28780 10.69126 9687 ft 266 kts 273°
2026-05-05 18:15 60.28806 10.65331 10269 ft 280 kts 270°
2026-05-05 18:16 60.28751 10.61252 10503 ft 303 kts 268°
2026-05-05 18:16 60.28643 10.56880 10826 ft 320 kts 267°
2026-05-05 18:16 60.28507 10.52368 11501 ft 325 kts 267°
2026-05-05 18:16 60.28361 10.47807 12272 ft 327 kts 267°
2026-05-05 18:17 60.28214 10.43206 12957 ft 330 kts 267°
2026-05-05 18:17 60.28068 10.38583 13741 ft 332 kts 267°
2026-05-05 18:17 60.27924 10.33933 14421 ft 333 kts 267°
2026-05-05 18:17 60.27780 10.29266 15142 ft 333 kts 267°
2026-05-05 18:18 60.27637 10.24616 15868 ft 333 kts 267°
2026-05-05 18:18 60.27493 10.19957 16607 ft 333 kts 267°
2026-05-05 18:18 60.27346 10.15300 17370 ft 333 kts 267°
2026-05-05 18:18 60.27196 10.10644 18131 ft 333 kts 267°
2026-05-05 18:19 60.27046 10.05994 18769 ft 334 kts 268°
2026-05-05 18:19 60.26894 10.01319 19400 ft 335 kts 268°
2026-05-05 18:19 60.26741 9.96641 20111 ft 334 kts 268°
2026-05-05 18:19 60.26587 9.91972 20868 ft 332 kts 267°
2026-05-05 18:20 60.26434 9.87349 21569 ft 331 kts 268°
2026-05-05 18:20 60.26279 9.82732 22247 ft 330 kts 268°
2026-05-05 18:20 60.26119 9.78131 22907 ft 329 kts 267°
2026-05-05 18:20 60.25955 9.73547 23528 ft 328 kts 267°
2026-05-05 18:21 60.25791 9.68980 24015 ft 328 kts 267°
2026-05-05 18:21 60.25627 9.64392 24486 ft 329 kts 267°
2026-05-05 18:21 60.25464 9.59793 24895 ft 330 kts 267°
2026-05-05 18:21 60.25298 9.55172 25231 ft 331 kts 267°
2026-05-05 18:22 60.25129 9.50530 25573 ft 333 kts 267°
2026-05-05 18:22 60.24956 9.45863 25929 ft 336 kts 267°
2026-05-05 18:22 60.24781 9.41168 26317 ft 338 kts 267°
2026-05-05 18:22 60.24603 9.36435 26714 ft 341 kts 267°
2026-05-05 18:23 60.24423 9.31668 27076 ft 343 kts 267°
2026-05-05 18:23 60.24242 9.26859 27434 ft 345 kts 266°
2026-05-05 18:23 60.24059 9.22028 27785 ft 347 kts 266°
2026-05-05 18:23 60.23872 9.17175 27907 ft 347 kts 266°
2026-05-05 18:24 60.23682 9.12343 27926 ft 346 kts 266°
2026-05-05 18:24 60.23489 9.07531 27930 ft 345 kts 266°
2026-05-05 18:24 60.23293 9.02719 27930 ft 345 kts 266°
2026-05-05 18:24 60.23096 8.97908 27922 ft 344 kts 266°
2026-05-05 18:25 60.22903 8.93169 27932 ft 344 kts 266°
2026-05-05 18:25 60.22772 8.89916 27931 ft 345 kts 266°
2026-05-05 18:25 60.22512 8.83550 27948 ft 345 kts 266°
2026-05-05 18:25 60.22312 8.78750 27945 ft 345 kts 266°
2026-05-05 18:26 60.22107 8.73946 27943 ft 345 kts 266°
2026-05-05 18:26 60.21898 8.69134 27920 ft 345 kts 266°
2026-05-05 18:26 60.21690 8.64320 27913 ft 346 kts 266°
2026-05-05 18:26 60.21484 8.59496 27915 ft 347 kts 266°
2026-05-05 18:27 60.21275 8.54662 27931 ft 347 kts 266°
2026-05-05 18:27 60.21062 8.49825 27929 ft 347 kts 266°
2026-05-05 18:27 60.20845 8.44992 27934 ft 348 kts 266°
2026-05-05 18:27 60.20624 8.40148 27935 ft 348 kts 266°
2026-05-05 18:28 60.20193 8.30449 27936 ft 348 kts 268°
2026-05-05 18:28 60.20264 8.25580 27945 ft 351 kts 273°
2026-05-05 18:28 60.20423 8.20647 27952 ft 354 kts 273°
2026-05-05 18:29 60.20574 8.15700 27960 ft 355 kts 272°
2026-05-05 18:29 60.20721 8.10749 27960 ft 354 kts 272°
2026-05-05 18:29 60.20864 8.05802 27963 ft 354 kts 272°
2026-05-05 18:29 60.21005 8.00866 27970 ft 354 kts 272°
2026-05-05 18:30 60.21144 7.95916 27966 ft 354 kts 272°
2026-05-05 18:30 60.21281 7.90956 27833 ft 356 kts 272°
2026-05-05 18:30 60.21416 7.86007 27563 ft 355 kts 272°
2026-05-05 18:30 60.21552 7.81052 27297 ft 353 kts 272°
2026-05-05 18:31 60.21685 7.76144 27036 ft 351 kts 272°
2026-05-05 18:31 60.21816 7.71247 26774 ft 350 kts 272°
2026-05-05 18:31 60.21947 7.66372 26514 ft 348 kts 272°
2026-05-05 18:31 60.22076 7.61526 26256 ft 346 kts 272°
2026-05-05 18:32 60.22200 7.56752 25868 ft 338 kts 272°
2026-05-05 18:32 60.22317 7.52073 25403 ft 332 kts 272°
2026-05-05 18:32 60.22428 7.47485 24944 ft 326 kts 272°
2026-05-05 18:32 60.22537 7.42955 24491 ft 322 kts 272°
2026-05-05 18:33 60.22645 7.38486 24053 ft 318 kts 273°
2026-05-05 18:33 60.22753 7.34070 23610 ft 315 kts 273°
2026-05-05 18:33 60.22857 7.29686 23123 ft 312 kts 273°
2026-05-05 18:33 60.22957 7.25357 22694 ft 308 kts 273°
2026-05-05 18:34 60.22982 7.21063 22013 ft 311 kts 266°
2026-05-05 18:34 60.22708 7.16677 21161 ft 320 kts 265°
2026-05-05 18:34 60.22409 7.12221 20484 ft 323 kts 264°
2026-05-05 18:34 60.22097 7.07738 19880 ft 324 kts 264°
2026-05-05 18:35 60.21781 7.03251 19274 ft 324 kts 264°
2026-05-05 18:35 60.21465 6.98750 18680 ft 325 kts 264°
2026-05-05 18:35 60.21149 6.94248 18072 ft 326 kts 264°
2026-05-05 18:35 60.20831 6.89729 17370 ft 326 kts 264°
2026-05-05 18:36 60.20511 6.85214 16736 ft 326 kts 264°
2026-05-05 18:36 60.20193 6.80713 16111 ft 325 kts 265°
2026-05-05 18:36 60.19878 6.76280 15490 ft 325 kts 265°
2026-05-05 18:36 60.19556 6.71789 14878 ft 324 kts 265°
2026-05-05 18:37 60.19234 6.67318 14283 ft 324 kts 265°
2026-05-05 18:37 60.18911 6.62830 13670 ft 324 kts 265°
2026-05-05 18:37 60.18587 6.58342 13048 ft 325 kts 264°
2026-05-05 18:37 60.18261 6.53857 12464 ft 323 kts 264°
2026-05-05 18:38 60.17936 6.49411 11872 ft 321 kts 264°
2026-05-05 18:38 60.17610 6.44978 11378 ft 319 kts 264°
2026-05-05 18:38 60.17284 6.40563 11121 ft 320 kts 264°
2026-05-05 18:38 60.16955 6.36134 10859 ft 320 kts 264°
2026-05-05 18:39 60.16626 6.31719 10605 ft 320 kts 263°
2026-05-05 18:39 60.16294 6.27304 10343 ft 319 kts 263°
2026-05-05 18:39 60.15961 6.22893 10087 ft 319 kts 263°
2026-05-05 18:39 60.15628 6.18523 9824 ft 312 kts 263°
2026-05-05 18:40 60.15303 6.14283 9551 ft 303 kts 263°
2026-05-05 18:40 60.14987 6.10157 9279 ft 295 kts 263°
2026-05-05 18:40 60.14678 6.06142 9003 ft 288 kts 263°
2026-05-05 18:40 60.14374 6.02225 8729 ft 281 kts 263°
2026-05-05 18:41 60.14076 5.98389 8461 ft 275 kts 263°
2026-05-05 18:41 60.13783 5.94630 8193 ft 271 kts 263°
2026-05-05 18:41 60.13493 5.90919 7924 ft 267 kts 263°
2026-05-05 18:41 60.13208 5.87268 7659 ft 264 kts 263°
2026-05-05 18:42 60.12927 5.83649 7386 ft 262 kts 263°
2026-05-05 18:42 60.12647 5.80046 7134 ft 261 kts 262°
2026-05-05 18:42 60.12366 5.76460 6875 ft 260 kts 262°
2026-05-05 18:42 60.12082 5.72882 6618 ft 259 kts 262°
2026-05-05 18:43 60.11797 5.69312 6364 ft 259 kts 262°
2026-05-05 18:43 60.11512 5.65753 6092 ft 258 kts 262°
2026-05-05 18:43 60.11228 5.62207 5825 ft 257 kts 262°
2026-05-05 18:43 60.10943 5.58664 5562 ft 256 kts 262°
2026-05-05 18:44 60.10657 5.55146 5418 ft 256 kts 262°
2026-05-05 18:44 60.10374 5.51668 5283 ft 249 kts 262°
2026-05-05 18:44 60.10099 5.48308 5153 ft 240 kts 262°
2026-05-05 18:44 60.09835 5.45069 5044 ft 230 kts 262°
2026-05-05 18:45 60.09638 5.41967 4985 ft 218 kts 271°
2026-05-05 18:45 60.09815 5.39018 4748 ft 212 kts 282°
2026-05-05 18:45 60.10096 5.36116 4418 ft 210 kts 281°
2026-05-05 18:45 60.10367 5.33253 3920 ft 209 kts 281°
2026-05-05 18:46 60.10696 5.30421 3422 ft 208 kts 296°
2026-05-05 18:46 60.11590 5.28246 3164 ft 202 kts 327°
2026-05-05 18:46 60.12866 5.27305 3043 ft 193 kts 350°
2026-05-05 18:46 60.14170 5.26879 2990 ft 187 kts 349°
2026-05-05 18:47 60.15421 5.26465 2831 ft 179 kts 349°
2026-05-05 18:47 60.16633 5.26062 2594 ft 174 kts 349°
2026-05-05 18:47 60.17814 5.25669 2350 ft 170 kts 349°
2026-05-05 18:47 60.18961 5.25288 2110 ft 162 kts 349°
2026-05-05 18:48 60.20034 5.24938 1832 ft 156 kts 349°
2026-05-05 18:48 60.21084 5.24573 1580 ft 150 kts 348°
2026-05-05 18:48 60.22073 5.24197 1394 ft 140 kts 348°
2026-05-05 18:48 60.23003 5.23903 1283 ft 133 kts 349°
2026-05-05 18:49 60.23899 5.23599 1098 ft 129 kts 348°
2026-05-05 18:49 60.24794 5.23331 890 ft 131 kts 350°
2026-05-05 18:49 60.25686 5.23028 697 ft 130 kts 348°
2026-05-05 18:49 60.26587 5.22736 538 ft 131 kts 347°
2026-05-05 18:50 60.27487 5.22440 362 ft 130 kts 346°
2026-05-05 18:50 60.28381 5.22143 185 ft 130 kts 347°
2026-05-05 18:50 60.29178 5.21870 161 ft 95 kts 351°
2026-05-05 18:50 60.29652 5.21712 149 ft 42 kts 350°
2026-05-05 18:51 60.29884 5.21634 157 ft 30 kts 351°
2026-05-05 18:51 60.30036 5.21677 161 ft 19 kts 75°
2026-05-05 18:51 60.30018 5.21910 158 ft 18 kts 160°
2026-05-05 18:51 60.29873 5.21959 153 ft 24 kts 169°
2026-05-05 18:52 60.29790 5.21986 149 ft 2 kts 170°
2026-05-05 18:52 60.29771 5.21993 148 ft 4 kts 170°
2026-05-05 18:52 60.29733 5.22006 148 ft 7 kts 170°
2026-05-05 18:52 60.29643 5.22036 148 ft 18 kts 171°
2026-05-05 18:53 60.29518 5.22078 154 ft 18 kts 170°
2026-05-05 18:53 60.29388 5.22122 158 ft 21 kts 170°
2026-05-05 18:53 60.29242 5.22169 163 ft 22 kts 171°
2026-05-05 18:53 60.29081 5.22224 162 ft 25 kts 170°
2026-05-05 18:54 60.28898 5.22286 162 ft 28 kts 171°
2026-05-05 18:54 60.28726 5.22348 163 ft 20 kts 170°
2026-05-05 18:54 60.28700 5.22490 166 ft 12 kts 63°
2026-05-05 18:54 60.28718 5.22640 169 ft 10 kts 80°
2026-05-05 18:55 60.28727 5.22753 172 ft 7 kts 81°
2026-05-05 18:55 60.28733 5.22828 173 ft 5 kts 80°
2026-05-05 18:55 60.28739 5.22900 173 ft 3 kts 80°
2026-05-05 18:55 60.28740 5.22908 173 ft 0 kts 80°